Location: Long Barn
(38.0930°N, 120.1344°W)
Time: 03:23:18
(UTC+00:00)

Hubble Space Telescope - Pass Details

Date: 31 January 2026
Orbit: 478 x 480 km, 28.5° (Epoch: 9 February)

Event Time Altitude Azimuth Distance (km) Brightness Sun altitude
Rises 02:33:03 0° 251° (WSW) 2,512 6.0 -14.3°
Reaches altitude 10° 02:36:02 10° 226° (SW) 1,634 4.1 -14.9°
Maximum altitude 02:38:07 14° 192° (SSW) 1,384 3.1 -15.3°
Drops below altitude 10° 02:40:13 10° 158° (SSE) 1,633 3.1 -15.7°
Enters shadow 02:41:11 - 147° (SSE) 1,877 3.3 -15.9°
